Location: ??
(35.5052°N, 139.7262°E)
Time: 01:43:47
(UTC+00:00)

OAO 1 - Pass Details

Date: 25 October 2021
Orbit: 773 x 784 km, 35.0° (Epoch: 03 December)

Event Time Altitude Azimuth Distance (km) Brightness Sun altitude
Rises 09:17:55 0° 262° (W) 3,246 9.5 -17.7°
Reaches altitude 10° 09:20:23 10° 262° (W) 2,321 8.3 -18.2°
Maximum altitude 09:25:53 84° 176° (S) 785 4.5 -19.4°
Enters shadow 09:27:59 39° 90° (E) 1,149 4.9 -19.8°
